STARLINK-36047, 66795

Orbit data source: Space-Track

STARLINK-36047, 66795 is a payload satellite owned by SpaceX/Seattle (US) in LEO that was launched on Mon, 01 Dec 2025 UTC via an FALCON 9 launch vehicle from the Air Force Eastern Test Range (AFETR). Payload-class satellites include a variety of spacecraft equipped with specific instruments for various scientific and technological missions. These include communications satellites like Starlink; space stations such as the ISS; scientific satellites like the Hubble; Earth observation satellites from companies like Planet Labs, Umbra, and HawkEye 360; GPS; miniature CubeSats for education and research; and military/defense satellites.

Loading next visibility...
Identifier
66795, 2025-278E
Orbit
LEO
Country
Flag of USUS
Related business
Manufacturer
SpaceX/Seattle
Mission
Operational Commercial Communications
Bus & Motor
STARLINK V2MO, Unknown motor
Mass
575 kg wet, ~530 kg dry
Launch date (UTC)
2025-12-01 (7 months ago)
Launch vehicle
FALCON 9
Launch site
Air Force Eastern Test Range (AFETR)
Object type
Payload
Rocket body
Debris
Shape & HBR
Box + 2 Pan, 17.7 m
Radar Cross Section
36.964 m², Large (>1 m²)

Expand to show TLE details & history
Last TLE update: 14 hours ago

TLE from 14 hours ago
0 STARLINK-36047
1 66795U 25278E   26171.25336359  .00022172  00000-0  81194-3 0  9990
2 66795  42.9999 255.2552 0001838 283.5615  76.5032 15.27615061 30890
Epoch: 2026-06-20T06:04Z
TLE epoch observation values (Epoch: 2026-06-20T06:04:50.614Z)
Latitude
Longitude
-104.42633°
Altitude
482.425 km
Speed
7.626 km/s
True Right ascension
17h 01m 01s
True Declination
0° 00' 00"
Sunlit
Object was in full shadow at epoch
Visualization orbit readout
Latitude
Unknown
Longitude
Unknown
Altitude
Unknown
Speed
Unknown
Apparent Right ascension
Unknown
Apparent Declination
Unknown
Sunlit
N/A
Visualization observer readout
Local Sidereal Time
07:16:28
Azimuth
Unknown
Elevation
Unknown
Doppler factor
Unknown
Orbital elements
Apogee altitude
486.151 km
Perigee altitude
483.628 km
Semi-major axis
6,863.026 km
Eccentricity
0.00018
Inclination
42.9999°
RAAN
255.2552°
Arg. of periapsis
283.5615°
True anomaly
76.52368°
Mean anomaly
76.5032°
Eccentric anomaly
76.51344°
Mean motion
3.81742 °/min
Orbital period
94.3 mins
BSTAR
0.00081194
Loading maneuver chart data...
Computing Atmospheric mass density...
Loading historical data...
Loading historical data...
Loading historical data...
Loading historical data...
Loading historical data...
Loading historical data...
Loading historical data...

Documentation

Showing up to 5 results
|